| time (UTC) | temp C | wind direction | speed KPH | gust KPH | rain 1hr cm | rain 24hr cm | rain mn cm | humidity % | barometer mb |
| 20260504060241 | 11 | 162 | 0.0 | 0.0 | 0.00 | 0.00 | 0.00 | 52 | 1000.8 |
| 20260504050709 | 8 | 166 | 0.0 | 0.0 | 0.00 | 0.00 | 0.00 | 62 | 1001.9 |
| 20260504050206 | 9 | 166 | 0.0 | 0.0 | 0.00 | 0.00 | 0.00 | 62 | 1002.1 |
| 20260504045703 | 8 | 166 | 0.0 | 0.0 | 0.00 | 0.00 | 0.00 | 63 | 1002.0 |
| 20260504045203 | 8 | 166 | 0.0 | 0.0 | 0.00 | 0.00 | 0.00 | 62 | 1002.2 |
| 20260504044702 | 9 | 166 | 0.0 | 0.0 | 0.00 | 0.00 | 0.00 | 61 | 1002.3 |
| 20260504044159 | 9 | 166 | 0.0 | 0.0 | 0.00 | 0.00 | 0.00 | 60 | 1002.5 |
| 20260504043655 | 10 | 166 | 0.0 | 0.0 | 0.00 | 0.00 | 0.00 | 60 | 1002.6 |
| 20260504043152 | 10 | 166 | 0.0 | 0.0 | 0.00 | 0.00 | 0.00 | 59 | 1002.6 |
| 20260504042650 | 10 | 166 | 0.0 | 0.0 | 0.00 | 0.00 | 0.00 | 58 | 1002.7 |
| 20260504042146 | 10 | 166 | 0.0 | 0.0 | 0.00 | 0.00 | 0.00 | 57 | 1002.8 |
| 20260504041642 | 10 | 166 | 0.0 | 0.0 | 0.00 | 0.00 | 0.00 | 57 | 1002.7 |
| 20260504041138 | 10 | 166 | 0.0 | 0.0 | 0.00 | 0.00 | 0.00 | 57 | 1003.0 |
| 20260504040636 | 10 | 166 | 0.0 | 0.0 | 0.00 | 0.00 | 0.00 | 56 | 1003.1 |
| 20260504040132 | 10 | 166 | 0.0 | 0.0 | 0.00 | 0.00 | 0.00 | 57 | 1002.9 |
| 20260504035629 | 10 | 166 | 0.0 | 0.0 | 0.00 | 0.00 | 0.00 | 56 | 1003.1 |
| 20260504035125 | 10 | 166 | 0.0 | 0.0 | 0.00 | 0.00 | 0.00 | 55 | 1003.5 |
| 20260504034624 | 10 | 166 | 0.0 | 0.0 | 0.00 | 0.00 | 0.00 | 54 | 1003.4 |
| 20260504034120 | 11 | 166 | 0.0 | 0.0 | 0.00 | 0.00 | 0.00 | 54 | 1003.5 |
| 20260504033618 | 11 | 166 | 0.0 | 0.0 | 0.00 | 0.00 | 0.00 | 53 | 1003.6 |
| 20260504033115 | 11 | 166 | 0.0 | 0.0 | 0.00 | 0.00 | 0.00 | 52 | 1003.9 |
| 20260504032612 | 11 | 166 | 0.0 | 0.0 | 0.00 | 0.00 | 0.00 | 51 | 1003.9 |
| 20260504032109 | 11 | 166 | 0.0 | 0.0 | 0.00 | 0.00 | 0.00 | 50 | 1003.7 |
| 20260504031606 | 11 | 166 | 0.0 | 0.0 | 0.00 | 0.00 | 0.00 | 50 | 1003.6 |
| 20260504031102 | 12 | 166 | 0.0 | 0.0 | 0.00 | 0.00 | 0.00 | 48 | 1003.8 |
| 20260504030559 | 12 | 166 | 0.0 | 0.0 | 0.00 | 0.00 | 0.00 | 47 | 1003.8 |
| 20260504030055 | 12 | 166 | 0.0 | 0.0 | 0.00 | 0.00 | 0.00 | 47 | 1004.1 |
| 20260504025553 | 12 | 166 | 0.0 | 0.0 | 0.00 | 0.00 | 0.00 | 46 | 1003.9 |
| 20260504025049 | 13 | 166 | 0.0 | 0.0 | 0.00 | 0.00 | 0.00 | 44 | 1004.0 |
| 20260504024547 | 13 | 166 | 0.0 | 0.0 | 0.00 | 0.00 | 0.00 | 43 | 1003.9 |
| 20260504024043 | 13 | 165 | 0.0 | 0.0 | 0.00 | 0.00 | 0.00 | 42 | 1004.1 |
| 20260504023540 | 14 | 166 | 0.0 | 0.0 | 0.00 | 0.00 | 0.00 | 40 | 1004.1 |
| 20260504023036 | 15 | 166 | 0.0 | 0.0 | 0.00 | 0.00 | 0.00 | 39 | 1004.0 |
| 20260504022532 | 15 | 166 | 0.0 | 0.0 | 0.00 | 0.00 | 0.00 | 38 | 1004.1 |
| 20260504022028 | 15 | 163 | 0.0 | 0.0 | 0.00 | 0.00 | 0.00 | 38 | 1004.2 |
| 20260504021526 | 15 | 167 | 0.0 | 0.0 | 0.00 | 0.00 | 0.00 | 37 | 1004.2 |
| 20260504021023 | 16 | 168 | 0.0 | 0.0 | 0.00 | 0.00 | 0.00 | 36 | 1004.2 |
| 20260504020520 | 16 | 164 | 0.0 | 0.0 | 0.00 | 0.00 | 0.00 | 35 | 1004.1 |
| 20260504020016 | 16 | 167 | 0.0 | 0.0 | 0.00 | 0.00 | 0.00 | 35 | 1004.4 |
| 20260504015513 | 16 | 167 | 0.0 | 0.0 | 0.00 | 0.00 | 0.00 | 34 | 1004.0 |
| 20260504015009 | 16 | 170 | 0.0 | 0.0 | 0.00 | 0.00 | 0.00 | 35 | 1004.0 |
| 20260504014505 | 17 | 164 | 1.6 | 3.2 | 0.00 | 0.00 | 0.00 | 34 | 1004.2 |
| 20260504014002 | 17 | 168 | 0.0 | 0.0 | 0.00 | 0.00 | 0.00 | 33 | 1004.2 |
| 20260504013500 | 17 | 166 | 0.0 | 0.0 | 0.00 | 0.00 | 0.00 | 33 | 1004.1 |
| 20260504012955 | 17 | 132 | 0.0 | 3.2 | 0.00 | 0.00 | 0.00 | 33 | 1004.4 |
| 20260504012454 | 17 | 173 | 0.0 | 0.0 | 0.00 | 0.00 | 0.00 | 32 | 1004.3 |
| 20260504011952 | 18 | 155 | 0.0 | 0.0 | 0.00 | 0.00 | 0.00 | 31 | 1004.2 |
| 20260504011448 | 18 | 178 | 0.0 | 0.0 | 0.00 | 0.00 | 0.00 | 31 | 1004.4 |
| 20260504010944 | 18 | 156 | 0.0 | 0.0 | 0.00 | 0.00 | 0.00 | 30 | 1004.2 |
| 20260504010440 | 18 | 161 | 0.0 | 0.0 | 0.00 | 0.00 | 0.00 | 31 | 1004.3 |
| 20260504005936 | 18 | 117 | 1.6 | 3.2 | 0.00 | 0.00 | 0.00 | 29 | 1004.4 |
| 20260504005433 | 18 | 269 | 3.2 | 4.8 | 0.00 | 0.00 | 0.00 | 29 | 1004.4 |
| 20260504004930 | 19 | 173 | 0.0 | 0.0 | 0.00 | 0.00 | 0.00 | 29 | 1004.4 |
| 20260504004428 | 19 | 172 | 0.0 | 0.0 | 0.00 | 0.00 | 0.00 | 29 | 1004.6 |
| 20260504003925 | 20 | 151 | 0.0 | 0.0 | 0.00 | 0.00 | 0.00 | 29 | 1004.5 |
| 20260504003421 | 20 | 159 | 0.0 | 0.0 | 0.00 | 0.00 | 0.00 | 29 | 1004.4 |
| 20260504002918 | 20 | 177 | 1.6 | 3.2 | 0.00 | 0.00 | 0.00 | 28 | 1004.5 |
| 20260504002415 | 20 | 166 | 1.6 | 3.2 | 0.00 | 0.00 | 0.00 | 29 | 1004.5 |
| 20260504001913 | 20 | 175 | 0.0 | 0.0 | 0.00 | 0.00 | 0.00 | 29 | 1004.4 |
| 20260504001410 | 20 | 154 | 3.2 | 4.8 | 0.00 | 0.00 | 0.00 | 28 | 1004.4 |
| 20260504000906 | 20 | 184 | 3.2 | 3.2 | 0.00 | 0.00 | 0.00 | 28 | 1004.4 |
| 20260504000403 | 20 | 176 | 3.2 | 3.2 | 0.00 | 0.00 | 0.00 | 29 | 1004.7 |
| 20260503235901 | 20 | 87 | 3.2 | 3.2 | 0.00 | 0.00 | 0.00 | 28 | 1004.7 |
| 20260503235359 | 20 | 164 | 1.6 | 3.2 | 0.00 | 0.00 | 0.00 | 28 | 1004.5 |
| 20260503234856 | 20 | 10 | 4.8 | 11.3 | 0.00 | 0.00 | 0.00 | 28 | 1004.6 |
| 20260503234353 | 20 | 166 | 0.0 | 0.0 | 0.00 | 0.00 | 0.00 | 28 | 1004.6 |
| 20260503233851 | 20 | 166 | 0.0 | 0.0 | 0.00 | 0.00 | 0.00 | 28 | 1004.6 |
| 20260503233347 | 20 | 187 | 0.0 | 3.2 | 0.00 | 0.00 | 0.00 | 27 | 1004.5 |
| 20260503232843 | 20 | 146 | 4.8 | 4.8 | 0.00 | 0.00 | 0.00 | 27 | 1004.6 |
| 20260503232341 | 21 | 155 | 0.0 | 3.2 | 0.00 | 0.00 | 0.00 | 27 | 1004.8 |
| 20260503231839 | 21 | 207 | 6.4 | 11.3 | 0.00 | 0.00 | 0.00 | 26 | 1004.8 |
| 20260503231336 | 21 | 198 | 3.2 | 4.8 | 0.00 | 0.00 | 0.00 | 27 | 1004.8 |
| 20260503230832 | 21 | 204 | 0.0 | 3.2 | 0.00 | 0.00 | 0.00 | 26 | 1005.2 |
| 20260503230329 | 22 | 202 | 6.4 | 8.0 | 0.00 | 0.00 | 0.00 | 26 | 1004.9 |
| 20260503225826 | 22 | 275 | 3.2 | 3.2 | 0.00 | 0.00 | 0.00 | 27 | 1004.9 |
| 20260503225322 | 22 | 213 | 3.2 | 3.2 | 0.00 | 0.00 | 0.00 | 26 | 1005.2 |
| 20260503224818 | 22 | 254 | 3.2 | 4.8 | 0.00 | 0.00 | 0.00 | 27 | 1005.2 |
| 20260503224316 | 22 | 33 | 3.2 | 8.0 | 0.00 | 0.00 | 0.00 | 26 | 1005.0 |
| 20260503223814 | 22 | 44 | 9.7 | 14.5 | 0.00 | 0.00 | 0.00 | 24 | 1005.4 |
| 20260503223311 | 22 | 219 | 3.2 | 3.2 | 0.00 | 0.00 | 0.00 | 26 | 1005.0 |
| 20260503222806 | 22 | 62 | 8.0 | 11.3 | 0.00 | 0.00 | 0.00 | 24 | 1005.2 |
| 20260503222305 | 22 | 148 | 4.8 | 4.8 | 0.00 | 0.00 | 0.00 | 24 | 1005.2 |
| 20260503221803 | 22 | 195 | 1.6 | 3.2 | 0.00 | 0.00 | 0.00 | 24 | 1005.2 |
| 20260503221301 | 22 | 21 | 11.3 | 16.1 | 0.00 | 0.00 | 0.00 | 24 | 1005.3 |
| 20260503220757 | 22 | 223 | 3.2 | 4.8 | 0.00 | 0.00 | 0.00 | 25 | 1005.3 |
| 20260503220254 | 22 | 276 | 1.6 | 3.2 | 0.00 | 0.00 | 0.00 | 26 | 1005.4 |
| 20260503215751 | 22 | 37 | 6.4 | 14.5 | 0.00 | 0.00 | 0.00 | 25 | 1005.4 |
| 20260503215248 | 22 | 205 | 3.2 | 3.2 | 0.00 | 0.00 | 0.00 | 26 | 1005.4 |
| 20260503214746 | 22 | 195 | 3.2 | 3.2 | 0.00 | 0.00 | 0.00 | 27 | 1005.5 |
| 20260503214242 | 23 | 180 | 0.0 | 0.0 | 0.00 | 0.00 | 0.00 | 25 | 1005.4 |
| 20260503213740 | 22 | 311 | 11.3 | 16.1 | 0.00 | 0.00 | 0.00 | 25 | 1005.4 |
| 20260503213238 | 22 | 119 | 3.2 | 4.8 | 0.00 | 0.00 | 0.00 | 31 | 1005.7 |
| 20260503212734 | 22 | 73 | 3.2 | 3.2 | 0.00 | 0.00 | 0.00 | 25 | 1005.5 |
| 20260503212232 | 23 | 220 | 3.2 | 4.8 | 0.00 | 0.00 | 0.00 | 28 | 1005.6 |
| 20260503211729 | 22 | 219 | 3.2 | 3.2 | 0.00 | 0.00 | 0.00 | 27 | 1005.6 |
| 20260503211225 | 22 | 267 | 9.7 | 16.1 | 0.00 | 0.00 | 0.00 | 27 | 1005.5 |
| 20260503210721 | 22 | 281 | 1.6 | 4.8 | 0.00 | 0.00 | 0.00 | 28 | 1005.7 |
| 20260503210219 | 22 | 320 | 3.2 | 4.8 | 0.00 | 0.00 | 0.00 | 28 | 1006.0 |
| 20260503205714 | 22 | 208 | 3.2 | 3.2 | 0.00 | 0.00 | 0.00 | 30 | 1005.7 |
| 20260503205210 | 22 | 80 | 3.2 | 3.2 | 0.00 | 0.00 | 0.00 | 29 | 1005.7 |
| 20260503204707 | 22 | 330 | 9.7 | 14.5 | 0.00 | 0.00 | 0.00 | 28 | 1005.8 |
| 20260503204205 | 22 | 4 | 9.7 | 14.5 | 0.00 | 0.00 | 0.00 | 29 | 1005.7 |
| 20260503203701 | 22 | 159 | 3.2 | 4.8 | 0.00 | 0.00 | 0.00 | 30 | 1005.7 |
| 20260503203159 | 22 | 193 | 4.8 | 8.0 | 0.00 | 0.00 | 0.00 | 30 | 1005.9 |
| 20260503202656 | 22 | 213 | 3.2 | 3.2 | 0.00 | 0.00 | 0.00 | 31 | 1005.9 |
| 20260503202154 | 21 | 232 | 3.2 | 4.8 | 0.00 | 0.00 | 0.00 | 30 | 1005.9 |
| 20260503201652 | 22 | 327 | 17.7 | 19.3 | 0.00 | 0.00 | 0.00 | 29 | 1006.1 |
| 20260503201149 | 22 | 228 | 3.2 | 4.8 | 0.00 | 0.00 | 0.00 | 29 | 1006.0 |
| 20260503200645 | 22 | 281 | 9.7 | 14.5 | 0.00 | 0.00 | 0.00 | 28 | 1006.0 |
| 20260503200141 | 22 | 263 | 0.0 | 3.2 | 0.00 | 0.00 | 0.00 | 31 | 1006.3 |
| 20260503195638 | 22 | 165 | 8.0 | 11.3 | 0.00 | 0.00 | 0.00 | 29 | 1006.1 |
| 20260503195135 | 21 | 190 | 6.4 | 11.3 | 0.00 | 0.00 | 0.00 | 27 | 1006.5 |
| 20260503194632 | 22 | 124 | 8.0 | 14.5 | 0.00 | 0.00 | 0.00 | 28 | 1006.5 |
| 20260503194127 | 22 | 11 | 6.4 | 8.0 | 0.00 | 0.00 | 0.00 | 30 | 1006.5 |
| 20260503193625 | 22 | 224 | 4.8 | 8.0 | 0.00 | 0.00 | 0.00 | 29 | 1006.5 |
| 20260503193120 | 22 | 34 | 6.4 | 8.0 | 0.00 | 0.00 | 0.00 | 31 | 1006.6 |
| 20260503192616 | 22 | 332 | 9.7 | 14.5 | 0.00 | 0.00 | 0.00 | 28 | 1006.4 |
| 20260503192112 | 22 | 14 | 6.4 | 8.0 | 0.00 | 0.00 | 0.00 | 28 | 1006.5 |
| 20260503191604 | 22 | 244 | 9.7 | 11.3 | 0.00 | 0.00 | 0.00 | 25 | 1006.5 |
| 20260503191100 | 22 | 346 | 8.0 | 8.0 | 0.00 | 0.00 | 0.00 | 28 | 1006.5 |
| 20260503190557 | 22 | 7 | 8.0 | 14.5 | 0.00 | 0.00 | 0.00 | 28 | 1006.7 |
| 20260503190055 | 21 | 313 | 20.9 | 27.4 | 0.00 | 0.00 | 0.00 | 28 | 1006.3 |
| 20260503185551 | 22 | 16 | 4.8 | 8.0 | 0.00 | 0.00 | 0.00 | 29 | 1006.5 |
| 20260503185050 | 21 | 182 | 3.2 | 4.8 | 0.00 | 0.00 | 0.00 | 30 | 1006.4 |
| 20260503184546 | 21 | 178 | 1.6 | 3.2 | 0.00 | 0.00 | 0.00 | 33 | 1006.5 |
| 20260503184043 | 21 | 159 | 16.1 | 22.5 | 0.00 | 0.00 | 0.00 | 33 | 1006.7 |
| 20260503183540 | 21 | 323 | 12.9 | 14.5 | 0.00 | 0.00 | 0.00 | 33 | 1006.7 |
| 20260503183037 | 21 | 232 | 9.7 | 14.5 | 0.00 | 0.00 | 0.00 | 32 | 1006.7 |
| 20260503182536 | 21 | 33 | 11.3 | 14.5 | 0.00 | 0.00 | 0.00 | 31 | 1006.9 |
| 20260503182033 | 21 | 314 | 6.4 | 8.0 | 0.00 | 0.00 | 0.00 | 35 | 1006.7 |
| 20260503181529 | 21 | 347 | 9.7 | 14.5 | 0.00 | 0.00 | 0.00 | 33 | 1006.8 |
| 20260503181026 | 21 | 310 | 6.4 | 8.0 | 0.00 | 0.00 | 0.00 | 35 | 1006.7 |
| 20260503180523 | 21 | 132 | 9.7 | 11.3 | 0.00 | 0.00 | 0.00 | 34 | 1006.8 |
| 20260503180020 | 21 | 332 | 4.8 | 4.8 | 0.00 | 0.00 | 0.00 | 35 | 1007.1 |
| 20260503175518 | 21 | 334 | 9.7 | 14.5 | 0.00 | 0.00 | 0.00 | 35 | 1006.9 |
| 20260503175015 | 21 | 178 | 6.4 | 11.3 | 0.00 | 0.00 | 0.00 | 38 | 1006.5 |
| 20260503174513 | 21 | 213 | 3.2 | 4.8 | 0.00 | 0.00 | 0.00 | 36 | 1006.8 |
| 20260503174008 | 21 | 195 | 4.8 | 11.3 | 0.00 | 0.00 | 0.00 | 35 | 1006.9 |
| 20260503173503 | 21 | 19 | 11.3 | 19.3 | 0.00 | 0.00 | 0.00 | 34 | 1006.8 |
| 20260503173000 | 21 | 50 | 6.4 | 8.0 | 0.00 | 0.00 | 0.00 | 35 | 1006.9 |
| 20260503172458 | 21 | 165 | 4.8 | 8.0 | 0.00 | 0.00 | 0.00 | 38 | 1006.9 |
| 20260503171955 | 21 | 303 | 8.0 | 14.5 | 0.00 | 0.00 | 0.00 | 38 | 1006.8 |
| 20260503171451 | 21 | 347 | 4.8 | 8.0 | 0.00 | 0.00 | 0.00 | 39 | 1007.1 |
| 20260503170949 | 20 | 332 | 4.8 | 4.8 | 0.00 | 0.00 | 0.00 | 39 | 1006.9 |
| 20260503170444 | 20 | 39 | 9.7 | 11.3 | 0.00 | 0.00 | 0.00 | 39 | 1006.9 |
| 20260503150837 | 17 | 136 | 11.3 | 16.1 | 0.00 | 0.00 | 0.00 | 42 | 1006.8 |
| 20260503150333 | 17 | 165 | 4.8 | 8.0 | 0.00 | 0.00 | 0.00 | 43 | 1006.8 |
| 20260503140257 | 15 | 336 | 4.8 | 8.0 | 0.00 | 0.00 | 0.00 | 49 | 1006.5 |
| 20260503131227 | 13 | 47 | 6.4 | 11.3 | 0.00 | 0.00 | 0.00 | 51 | 1005.8 |
| 20260503130725 | 13 | 35 | 4.8 | 4.8 | 0.00 | 0.00 | 0.00 | 51 | 1005.8 |
| 20260503130222 | 13 | 254 | 3.2 | 4.8 | 0.00 | 0.00 | 0.00 | 50 | 1005.8 |
| 20260503120147 | 10 | 188 | 1.6 | 3.2 | 0.00 | 0.00 | 0.00 | 55 | 1005.3 |
| 20260503110615 | 10 | 159 | 0.0 | 0.0 | 0.00 | 0.00 | 0.00 | 54 | 1004.6 |
| 20260503110112 | 11 | 165 | 0.0 | 0.0 | 0.00 | 0.00 | 0.00 | 53 | 1004.3 |
| 20260503090502 | 12 | 176 | 6.4 | 11.3 | 0.00 | 0.00 | 0.00 | 47 | 1005.4 |
| 20260503081428 | 14 | 138 | 3.2 | 4.8 | 0.00 | 0.00 | 0.00 | 46 | 1005.5 |
| 20260503080925 | 14 | 163 | 0.0 | 0.0 | 0.00 | 0.00 | 0.00 | 46 | 1005.8 |
| 20260503080421 | 15 | 184 | 3.2 | 4.8 | 0.00 | 0.00 | 0.00 | 45 | 1005.9 |
| 20260503072857 | 15 | 178 | 1.6 | 3.2 | 0.00 | 0.00 | 0.00 | 47 | 1005.9 |
| 20260503072355 | 15 | 314 | 6.4 | 11.3 | 0.00 | 0.00 | 0.00 | 47 | 1006.0 |
| 20260503071851 | 15 | 186 | 3.2 | 4.8 | 0.00 | 0.00 | 0.00 | 48 | 1006.1 |
| 20260503071349 | 15 | 142 | 0.0 | 3.2 | 0.00 | 0.00 | 0.00 | 47 | 1006.1 |
| 20260503070844 | 15 | 177 | 3.2 | 3.2 | 0.00 | 0.00 | 0.00 | 47 | 1006.2 |
| 20260503070343 | 13 | 219 | 4.8 | 8.0 | 0.00 | 0.00 | 0.00 | 48 | 1006.5 |